Flag for Nicaragua Weather past 2 weeks in Managua, Nicaragua

Now
88 °F

Passing clouds.


Feels Like: 100 °F
Forecast: 72 / 91 °F
Wind: 9 mph from East

Location: Managua A. C. Sandino

Current Time: Aug 23, 2014 at 12:01:53 PM

Latest Report: Aug 23, 2014 at 11:00 AM


Visibility: N/A

Pressure: 29.86 "Hg

Humidity: 70%

Dew point: 77 °F

Location of ManaguaLocation

Historic Weather in Managua — Graph

°F

Managua temperature yesterday

Maximum temperature yesterday: 91 °F (at 1:00 PM)
Minimum temperature yesterday: 75 °F (at 12:00 AM)
Average temperature yesterday: 83 °F

Past Weeks' High & Low Weather Summary

 TemperatureHumidityPressure
High95 °F (Aug 11, 4:00 PM)94% (Aug 9, 7:00 PM)29.95 "Hg (Aug 9, 7:00 PM)
Low72 °F (Aug 20, 7:00 PM)49% (Aug 14, 2:00 PM)29.74 "Hg (Aug 11, 4:00 PM)
Average82 °F78%29.85 "Hg
* Reported Aug 8 11:00 AM — Aug 23 11:00 AM, Managua, Weather by CustomWeather, © 2014

Note: Actual official high and low records may vary slightly from our data, if they occured in-between our weather recording intervals... More about our weather records

Advertising

Managua weather history for previous 24 hours

 ConditionsComfort  
Time TempWeatherWind HumidityBarometerVisibility
11:00 AM
Aug 23
88 °FPassing clouds.9 mph70%29.86 "HgN/A
10:00 AM86 °FPassing clouds.12 mph70%29.86 "HgN/A
9:00 AM84 °FPassing clouds.9 mph74%29.89 "HgN/A
8:00 AM81 °FPassing clouds.7 mph84%29.86 "HgN/A
7:00 AM77 °FPassing clouds.5 mph89%29.86 "HgN/A
6:00 AM73 °FPassing clouds.5 mph94%29.83 "HgN/A
5:00 AM73 °FPassing clouds.No wind94%29.83 "HgN/A
4:00 AM75 °FPassing clouds.No wind89%29.83 "HgN/A
3:00 AM75 °FPassing clouds.No wind89%29.83 "HgN/A
12:00 AM79 °FPassing clouds.5 mph89%29.86 "HgN/A
11:00 PM
Aug 22
79 °FPassing clouds.5 mph89%29.89 "HgN/A
10:00 PM79 °FPassing clouds.7 mph89%29.89 "HgN/A
9:00 PM79 °FPassing clouds.9 mph89%29.86 "HgN/A
8:00 PM81 °FPassing clouds.7 mph84%29.86 "HgN/A
7:00 PM82 °FPassing clouds.7 mph79%29.83 "HgN/A
6:00 PM84 °FPassing clouds.7 mph70%29.80 "HgN/A
5:00 PM88 °FPassing clouds.5 mph59%29.77 "HgN/A
4:00 PM90 °FPassing clouds.14 mph55%29.77 "HgN/A
3:00 PM90 °FPassing clouds.9 mph59%29.77 "HgN/A
2:00 PM90 °FPassing clouds.14 mph55%29.80 "HgN/A
1:00 PM91 °FScattered clouds.12 mph52%29.83 "HgN/A
12:00 PM90 °FScattered clouds.7 mph55%29.86 "HgN/A
Weather by CustomWeather, © 2014

See weather overviewHow to use our weather pages